| time (UTC) | temp C | wind direction | speed KPH | gust KPH | rain 1hr cm | rain 24hr cm | rain mn cm | humidity % | barometer mb |
| 20260507051002 | 6 | 180 | 3.2 | 0.0 | 0.00 | 0.00 | 0.00 | 99 | 1007.8 |
| 20260507050502 | 6 | 158 | 3.2 | 0.0 | 0.00 | 0.00 | 0.00 | 99 | 1007.8 |
| 20260507050002 | 6 | 180 | 4.8 | 0.0 | 0.00 | 0.00 | 0.00 | 99 | 1008.1 |
| 20260507045002 | 6 | 203 | 3.2 | 0.0 | 0.00 | 0.00 | 0.00 | 99 | 1008.1 |
| 20260507044502 | 6 | 203 | 4.8 | 0.0 | 0.00 | 0.00 | 0.00 | 99 | 1008.1 |
| 20260507044002 | 6 | 180 | 6.4 | 0.0 | 0.00 | 0.00 | 0.00 | 99 | 1008.1 |
| 20260507043007 | 6 | 180 | 3.2 | 0.0 | 0.00 | 0.00 | 0.00 | 99 | 1008.1 |
| 20260507042501 | 6 | 180 | 3.2 | 0.0 | 0.00 | 0.00 | 0.00 | 99 | 1008.1 |
| 20260507042007 | 6 | 180 | 4.8 | 0.0 | 0.00 | 0.00 | 0.00 | 99 | 1008.1 |
| 20260507041501 | 6 | 158 | 6.4 | 0.0 | 0.00 | 0.00 | 0.00 | 99 | 1008.1 |
| 20260507041002 | 6 | 180 | 4.8 | 0.0 | 0.00 | 0.00 | 0.00 | 99 | 1008.1 |
| 20260507040502 | 6 | 180 | 4.8 | 0.0 | 0.00 | 0.00 | 0.00 | 99 | 1008.5 |
| 20260507040002 | 6 | 203 | 3.2 | 0.0 | 0.00 | 0.00 | 0.00 | 99 | 1008.5 |
| 20260507035502 | 6 | 158 | 1.6 | 0.0 | 0.00 | 0.00 | 0.99 | 99 | 1008.5 |
| 20260507035001 | 6 | 180 | 4.8 | 0.0 | 0.00 | 0.00 | 0.99 | 99 | 1008.5 |
| 20260507034507 | 6 | 180 | 3.2 | 0.0 | 0.00 | 0.00 | 0.99 | 99 | 1008.5 |
| 20260507034002 | 6 | 180 | 1.6 | 0.0 | 0.00 | 0.00 | 0.99 | 98 | 1008.5 |
| 20260507033501 | 6 | 180 | 4.8 | 0.0 | 0.00 | 0.00 | 0.99 | 98 | 1008.5 |
| 20260507032502 | 6 | 158 | 6.4 | 0.0 | 0.00 | 0.00 | 0.99 | 97 | 1008.5 |
| 20260507032001 | 6 | 203 | 3.2 | 0.0 | 0.00 | 0.00 | 0.99 | 97 | 1008.5 |
| 20260507031501 | 6 | 158 | 6.4 | 0.0 | 0.00 | 0.00 | 0.99 | 97 | 1008.5 |
| 20260507031002 | 6 | 158 | 3.2 | 0.0 | 0.00 | 0.00 | 0.99 | 97 | 1008.5 |
| 20260507030502 | 6 | 203 | 3.2 | 0.0 | 0.00 | 0.00 | 0.99 | 96 | 1008.5 |
| 20260507030002 | 6 | 180 | 4.8 | 0.0 | 0.00 | 0.00 | 0.99 | 96 | 1008.8 |
| 20260507025501 | 6 | 180 | 3.2 | 0.0 | 0.00 | 0.00 | 0.99 | 96 | 1008.5 |
| 20260507025001 | 6 | 203 | 1.6 | 0.0 | 0.00 | 0.00 | 0.99 | 95 | 1008.8 |
| 20260507024502 | 7 | 180 | 3.2 | 0.0 | 0.00 | 0.00 | 0.99 | 95 | 1008.8 |
| 20260507024002 | 7 | 203 | 3.2 | 0.0 | 0.00 | 0.00 | 0.99 | 95 | 1008.8 |
| 20260507023002 | 7 | 203 | 3.2 | 0.0 | 0.00 | 0.00 | 0.99 | 94 | 1008.8 |
| 20260507022001 | 7 | 203 | 3.2 | 0.0 | 0.00 | 0.00 | 0.99 | 93 | 1008.8 |
| 20260507021501 | 7 | 203 | 0.0 | 0.0 | 0.00 | 0.00 | 0.99 | 93 | 1008.8 |
| 20260507020502 | 7 | 203 | 4.8 | 0.0 | 0.00 | 0.00 | 0.99 | 94 | 1008.8 |
| 20260507020002 | 7 | 180 | 1.6 | 0.0 | 0.00 | 0.00 | 0.99 | 94 | 1008.8 |
| 20260507015501 | 7 | 180 | 3.2 | 0.0 | 0.00 | 0.00 | 0.99 | 93 | 1009.1 |
| 20260507014002 | 7 | 203 | 1.6 | 0.0 | 0.00 | 0.00 | 0.99 | 92 | 1009.1 |
| 20260507013502 | 7 | 203 | 4.8 | 0.0 | 0.00 | 0.00 | 0.99 | 91 | 1009.1 |
| 20260507012501 | 7 | 203 | 1.6 | 0.0 | 0.00 | 0.00 | 0.99 | 90 | 1009.1 |
| 20260507012002 | 7 | 180 | 1.6 | 0.0 | 0.00 | 0.00 | 0.99 | 90 | 1009.1 |
| 20260507010502 | 7 | 203 | 1.6 | 0.0 | 0.00 | 0.00 | 0.99 | 88 | 1008.8 |
| 20260507010002 | 7 | 203 | 3.2 | 0.0 | 0.00 | 0.00 | 0.99 | 89 | 1008.8 |
| 20260507004502 | 7 | 158 | 1.6 | 0.0 | 0.00 | 0.00 | 0.99 | 89 | 1008.5 |
| 20260507003002 | 7 | 203 | 3.2 | 0.0 | 0.00 | 0.00 | 0.99 | 89 | 1008.5 |
| 20260507002502 | 7 | 225 | 1.6 | 0.0 | 0.00 | 0.00 | 0.99 | 89 | 1008.5 |
| 20260507002001 | 7 | 203 | 3.2 | 0.0 | 0.00 | 0.00 | 0.99 | 89 | 1008.5 |
| 20260507001501 | 7 | 203 | 1.6 | 0.0 | 0.00 | 0.00 | 0.99 | 90 | 1008.5 |
| 20260507000502 | 7 | 203 | 1.6 | 0.0 | 0.00 | 0.00 | 0.99 | 91 | 1008.5 |
| 20260507000002 | 7 | 203 | 3.2 | 0.0 | 0.00 | 0.00 | 0.99 | 90 | 1008.5 |
| 20260506235501 | 7 | 203 | 1.6 | 0.0 | 0.00 | 0.00 | 0.99 | 90 | 1008.5 |
| 20260506235002 | 7 | 225 | 1.6 | 0.0 | 0.00 | 0.00 | 0.99 | 89 | 1008.5 |
| 20260506234502 | 7 | 203 | 0.0 | 0.0 | 0.00 | 0.00 | 0.99 | 89 | 1008.1 |
| 20260506234002 | 7 | 248 | 1.6 | 0.0 | 0.00 | 0.00 | 0.99 | 88 | 1008.1 |
| 20260506233502 | 8 | 203 | 1.6 | 0.0 | 0.00 | 0.00 | 0.99 | 87 | 1008.1 |
| 20260506232001 | 8 | 203 | 0.0 | 0.0 | 0.00 | 0.00 | 0.99 | 85 | 1007.8 |
| 20260506231501 | 8 | 225 | 1.6 | 0.0 | 0.00 | 0.00 | 0.99 | 85 | 1008.1 |
| 20260506231001 | 8 | 203 | 1.6 | 0.0 | 0.00 | 0.00 | 0.99 | 83 | 1007.8 |
| 20260506230502 | 8 | 270 | 1.6 | 0.0 | 0.00 | 0.00 | 0.99 | 83 | 1008.1 |
| 20260506230002 | 8 | 203 | 1.6 | 0.0 | 0.00 | 0.00 | 0.99 | 82 | 1008.1 |
| 20260506225002 | 8 | 180 | 1.6 | 0.0 | 0.00 | 0.00 | 0.99 | 82 | 1007.8 |
| 20260506224501 | 8 | 248 | 0.0 | 0.0 | 0.00 | 0.00 | 0.99 | 83 | 1008.1 |
| 20260506224001 | 9 | 225 | 0.0 | 0.0 | 0.00 | 0.00 | 0.99 | 82 | 1008.1 |
| 20260506223501 | 8 | 203 | 1.6 | 0.0 | 0.00 | 0.00 | 0.99 | 81 | 1008.1 |
| 20260506223001 | 9 | 203 | 0.0 | 0.0 | 0.00 | 0.00 | 0.99 | 79 | 1008.1 |
| 20260506222501 | 9 | 293 | 3.2 | 0.0 | 0.00 | 0.00 | 0.99 | 78 | 1008.1 |
| 20260506222002 | 9 | 248 | 3.2 | 0.0 | 0.00 | 0.00 | 0.99 | 78 | 1008.1 |
| 20260506221501 | 9 | 203 | 3.2 | 0.0 | 0.00 | 0.00 | 0.99 | 79 | 1008.1 |
| 20260506221001 | 10 | 158 | 0.0 | 0.0 | 0.00 | 0.00 | 0.99 | 78 | 1008.1 |
| 20260506220501 | 10 | 270 | 3.2 | 0.0 | 0.00 | 0.00 | 0.99 | 78 | 1008.1 |
| 20260506220002 | 10 | 225 | 3.2 | 0.0 | 0.00 | 0.00 | 0.99 | 79 | 1008.1 |
| 20260506215502 | 9 | 203 | 3.2 | 0.0 | 0.00 | 0.00 | 0.99 | 79 | 1008.1 |
| 20260506215001 | 9 | 180 | 0.0 | 0.0 | 0.00 | 0.00 | 0.99 | 79 | 1008.1 |
| 20260506214501 | 8 | 338 | 3.2 | 0.0 | 0.00 | 0.00 | 0.99 | 80 | 1008.1 |
| 20260506214002 | 8 | 270 | 3.2 | 0.0 | 0.00 | 0.00 | 0.99 | 80 | 1008.1 |
| 20260506213501 | 8 | 270 | 1.6 | 0.0 | 0.00 | 0.00 | 0.99 | 80 | 1008.1 |
| 20260506213002 | 8 | 270 | 3.2 | 0.0 | 0.00 | 0.00 | 0.99 | 81 | 1008.1 |
| 20260506212502 | 8 | 270 | 1.6 | 0.0 | 0.00 | 0.00 | 0.99 | 81 | 1008.1 |
| 20260506211502 | 8 | 270 | 3.2 | 0.0 | 0.00 | 0.00 | 0.99 | 81 | 1008.5 |
| 20260506211002 | 8 | 225 | 0.0 | 0.0 | 0.00 | 0.00 | 0.99 | 80 | 1008.5 |
| 20260506210501 | 9 | 270 | 1.6 | 0.0 | 0.00 | 0.00 | 0.99 | 80 | 1008.5 |
| 20260506210002 | 9 | 270 | 3.2 | 0.0 | 0.00 | 0.00 | 0.99 | 79 | 1008.5 |
| 20260506205501 | 9 | 315 | 3.2 | 0.0 | 0.00 | 0.00 | 0.99 | 78 | 1008.5 |
| 20260506204501 | 9 | 315 | 1.6 | 0.0 | 0.00 | 0.00 | 0.99 | 79 | 1008.5 |
| 20260506204001 | 9 | 270 | 1.6 | 0.0 | 0.00 | 0.00 | 0.99 | 79 | 1008.5 |
| 20260506203502 | 9 | 270 | 3.2 | 0.0 | 0.00 | 0.00 | 0.99 | 77 | 1008.5 |
| 20260506203002 | 9 | 270 | 3.2 | 0.0 | 0.00 | 0.00 | 0.99 | 79 | 1008.5 |
| 20260506201501 | 10 | 270 | 3.2 | 0.0 | 0.00 | 0.00 | 0.99 | 77 | 1008.5 |
| 20260506201002 | 9 | 338 | 3.2 | 0.0 | 0.00 | 0.00 | 0.99 | 78 | 1008.5 |
| 20260506200502 | 9 | 315 | 4.8 | 0.0 | 0.00 | 0.00 | 0.99 | 79 | 1008.5 |
| 20260506200002 | 8 | 270 | 4.8 | 0.0 | 0.00 | 0.00 | 0.99 | 84 | 1008.5 |
| 20260506195502 | 8 | 293 | 3.2 | 0.0 | 0.00 | 0.00 | 0.99 | 83 | 1008.5 |
| 20260506194502 | 8 | 270 | 4.8 | 0.0 | 0.00 | 0.00 | 0.99 | 85 | 1008.5 |
| 20260506193502 | 8 | 315 | 4.8 | 0.0 | 0.00 | 0.00 | 0.99 | 86 | 1008.8 |
| 20260506193002 | 8 | 293 | 6.4 | 0.0 | 0.00 | 0.00 | 0.99 | 85 | 1008.8 |
| 20260506192501 | 8 | 293 | 1.6 | 0.0 | 0.00 | 0.00 | 0.99 | 86 | 1008.5 |
| 20260506192001 | 9 | 293 | 6.4 | 0.0 | 0.00 | 0.00 | 0.99 | 83 | 1008.5 |
| 20260506191502 | 9 | 293 | 4.8 | 0.0 | 0.00 | 0.00 | 0.99 | 81 | 1008.5 |
| 20260506190502 | 10 | 270 | 3.2 | 0.0 | 0.00 | 0.00 | 0.99 | 81 | 1008.5 |
| 20260506190002 | 9 | 270 | 0.0 | 0.0 | 0.00 | 0.00 | 0.99 | 85 | 1008.5 |
| 20260506185502 | 9 | 248 | 0.0 | 0.0 | 0.00 | 0.00 | 0.99 | 85 | 1008.5 |
| 20260506185002 | 9 | 113 | 0.0 | 0.0 | 0.00 | 0.00 | 0.99 | 85 | 1008.5 |
| 20260506184002 | 10 | 45 | 0.0 | 0.0 | 0.00 | 0.00 | 0.99 | 79 | 1008.1 |
| 20260506183503 | 10 | 113 | 3.2 | 0.0 | 0.00 | 0.00 | 0.99 | 85 | 1008.5 |
| 20260506183001 | 9 | 113 | 3.2 | 0.0 | 0.00 | 0.00 | 0.99 | 89 | 1008.5 |
| 20260506182502 | 9 | 68 | 0.0 | 0.0 | 0.00 | 0.00 | 0.99 | 87 | 1008.5 |
| 20260506182001 | 9 | 23 | 3.2 | 0.0 | 0.00 | 0.00 | 0.99 | 89 | 1008.8 |
| 20260506181501 | 8 | 270 | 0.0 | 0.0 | 0.00 | 0.00 | 0.99 | 89 | 1008.8 |
| 20260506180002 | 7 | 68 | 1.6 | 0.0 | 0.00 | 0.00 | 0.99 | 93 | 1009.1 |
| 20260506175501 | 7 | 203 | 0.0 | 0.0 | 0.00 | 0.00 | 0.99 | 94 | 1009.1 |
| 20260506175001 | 7 | 225 | 1.6 | 0.0 | 0.03 | 0.00 | 0.99 | 94 | 1009.1 |
| 20260506174501 | 7 | 293 | 3.2 | 0.0 | 0.03 | 0.00 | 0.99 | 94 | 1009.1 |
| 20260506173501 | 7 | 248 | 0.0 | 0.0 | 0.03 | 0.00 | 0.99 | 95 | 1009.1 |
| 20260506173002 | 7 | 315 | 3.2 | 0.0 | 0.03 | 0.00 | 0.99 | 95 | 1009.5 |
| 20260506172502 | 7 | 270 | 3.2 | 0.0 | 0.03 | 0.00 | 0.99 | 94 | 1009.5 |
| 20260506172002 | 7 | 270 | 1.6 | 0.0 | 0.05 | 0.00 | 0.99 | 96 | 1009.5 |
| 20260506170502 | 7 | 45 | 3.2 | 0.0 | 0.08 | 0.00 | 0.99 | 93 | 1009.5 |
| 20260506170002 | 7 | 338 | 1.6 | 0.0 | 0.08 | 0.00 | 0.99 | 92 | 1009.5 |
| 20260506165501 | 7 | 315 | 0.0 | 0.0 | 0.05 | 0.00 | 0.97 | 93 | 1009.5 |
| 20260506165007 | 7 | 293 | 3.2 | 0.0 | 0.05 | 0.00 | 0.97 | 94 | 1009.8 |
| 20260506164001 | 6 | 23 | 3.2 | 0.0 | 0.10 | 0.00 | 0.97 | 96 | 1009.8 |
| 20260506163501 | 6 | 90 | 1.6 | 0.0 | 0.10 | 0.00 | 0.97 | 97 | 1009.8 |
| 20260506163002 | 6 | 338 | 4.8 | 0.0 | 0.15 | 0.00 | 0.97 | 98 | 1009.8 |
| 20260506162002 | 6 | 315 | 3.2 | 0.0 | 0.15 | 0.00 | 0.94 | 99 | 1009.8 |
| 20260506161502 | 6 | 315 | 3.2 | 0.0 | 0.15 | 0.00 | 0.94 | 99 | 1009.8 |
| 20260506161002 | 6 | 293 | 3.2 | 0.0 | 0.15 | 0.00 | 0.91 | 99 | 1010.2 |
| 20260506160502 | 6 | 270 | 4.8 | 0.0 | 0.15 | 0.00 | 0.91 | 99 | 1010.2 |
| 20260506160002 | 6 | 315 | 3.2 | 0.0 | 0.18 | 0.00 | 0.91 | 99 | 1010.2 |
| 20260506155502 | 6 | 293 | 3.2 | 0.0 | 0.18 | 0.00 | 0.91 | 99 | 1010.2 |
| 20260506155002 | 6 | 315 | 1.6 | 0.0 | 0.18 | 0.00 | 0.91 | 99 | 1010.2 |
| 20260506154502 | 6 | 338 | 3.2 | 0.0 | 0.15 | 0.00 | 0.89 | 99 | 1010.2 |
| 20260506154002 | 6 | 0 | 3.2 | 0.0 | 0.15 | 0.00 | 0.86 | 99 | 1010.2 |
| 20260506153502 | 6 | 315 | 3.2 | 0.0 | 0.10 | 0.00 | 0.81 | 99 | 1010.2 |
| 20260506153001 | 6 | 270 | 4.8 | 0.0 | 0.13 | 0.00 | 0.81 | 99 | 1010.5 |
| 20260506152501 | 6 | 270 | 3.2 | 0.0 | 0.10 | 0.00 | 0.79 | 99 | 1010.2 |
| 20260506152002 | 6 | 270 | 3.2 | 0.0 | 0.13 | 0.00 | 0.79 | 99 | 1010.2 |
| 20260506151502 | 6 | 270 | 1.6 | 0.0 | 0.10 | 0.00 | 0.76 | 99 | 1010.2 |
| 20260506151001 | 6 | 270 | 3.2 | 0.0 | 0.13 | 0.00 | 0.76 | 99 | 1010.2 |
| 20260506150501 | 6 | 293 | 3.2 | 0.0 | 0.13 | 0.00 | 0.76 | 99 | 1010.2 |
| 20260506150002 | 6 | 270 | 3.2 | 0.0 | 0.13 | 0.00 | 0.71 | 99 | 1010.2 |
| 20260506145002 | 6 | 315 | 1.6 | 0.0 | 0.15 | 0.00 | 0.71 | 99 | 1010.2 |
| 20260506144502 | 6 | 293 | 3.2 | 0.0 | 0.13 | 0.00 | 0.71 | 99 | 1010.2 |
| 20260506143502 | 6 | 225 | 0.0 | 0.0 | 0.13 | 0.00 | 0.69 | 99 | 1010.2 |
| 20260506143002 | 6 | 270 | 4.8 | 0.0 | 0.13 | 0.00 | 0.69 | 99 | 1010.2 |
| 20260506142501 | 6 | 270 | 1.6 | 0.0 | 0.10 | 0.00 | 0.66 | 99 | 1010.2 |
| 20260506141501 | 6 | 225 | 0.0 | 0.0 | 0.10 | 0.00 | 0.64 | 99 | 1010.2 |
| 20260506140502 | 6 | 225 | 1.6 | 0.0 | 0.10 | 0.00 | 0.61 | 99 | 1010.2 |
| 20260506140001 | 6 | 203 | 0.0 | 0.0 | 0.10 | 0.00 | 0.61 | 99 | 1010.2 |
| 20260506135502 | 6 | 180 | 3.2 | 0.0 | 0.08 | 0.00 | 0.58 | 99 | 1010.2 |
| 20260506135002 | 6 | 203 | 3.2 | 0.0 | 0.13 | 0.00 | 0.58 | 99 | 1010.2 |
| 20260506134502 | 6 | 203 | 1.6 | 0.0 | 0.10 | 0.00 | 0.56 | 99 | 1010.2 |
| 20260506134001 | 6 | 203 | 3.2 | 0.0 | 0.13 | 0.00 | 0.56 | 99 | 1010.2 |
| 20260506133001 | 6 | 203 | 0.0 | 0.0 | 0.18 | 0.00 | 0.56 | 99 | 1010.2 |
| 20260506132502 | 6 | 225 | 0.0 | 0.0 | 0.15 | 0.00 | 0.53 | 99 | 1010.2 |
| 20260506132001 | 6 | 180 | 0.0 | 0.0 | 0.18 | 0.00 | 0.53 | 99 | 1010.2 |
| 20260506131502 | 6 | 225 | 3.2 | 0.0 | 0.18 | 0.00 | 0.53 | 99 | 1010.2 |
| 20260506131002 | 6 | 248 | 3.2 | 0.0 | 0.18 | 0.00 | 0.51 | 99 | 1010.2 |
| 20260506130502 | 6 | 225 | 3.2 | 0.0 | 0.18 | 0.00 | 0.51 | 99 | 1010.2 |
| 20260506125502 | 6 | 158 | 3.2 | 0.0 | 0.20 | 0.00 | 0.48 | 99 | 1010.2 |
| 20260506125001 | 6 | 248 | 3.2 | 0.0 | 0.20 | 0.00 | 0.46 | 99 | 1010.2 |
| 20260506124502 | 6 | 225 | 1.6 | 0.0 | 0.20 | 0.00 | 0.46 | 99 | 1010.2 |
| 20260506123502 | 6 | 225 | 3.2 | 0.0 | 0.18 | 0.00 | 0.41 | 99 | 1010.2 |
| 20260506123001 | 6 | 180 | 1.6 | 0.0 | 0.20 | 0.00 | 0.38 | 99 | 1010.2 |
| 20260506122501 | 6 | 203 | 4.8 | 0.0 | 0.18 | 0.00 | 0.36 | 99 | 1010.2 |
| 20260506122006 | 6 | 203 | 0.0 | 0.0 | 0.20 | 0.00 | 0.36 | 98 | 1010.2 |
| 20260506121501 | 6 | 225 | 3.2 | 0.0 | 0.18 | 0.00 | 0.33 | 99 | 1009.8 |
| 20260506121002 | 6 | 203 | 0.0 | 0.0 | 0.20 | 0.00 | 0.33 | 98 | 1010.2 |
| 20260506120502 | 7 | 248 | 0.0 | 0.0 | 0.18 | 0.00 | 0.30 | 99 | 1010.2 |
| 20260506120002 | 7 | 225 | 1.6 | 0.0 | 0.18 | 0.00 | 0.28 | 99 | 1010.2 |
| 20260506115502 | 7 | 225 | 4.8 | 0.0 | 0.18 | 0.00 | 0.28 | 99 | 1010.5 |
| 20260506115001 | 7 | 270 | 1.6 | 0.0 | 0.18 | 0.00 | 0.25 | 99 | 1010.5 |
| 20260506114502 | 7 | 225 | 1.6 | 0.0 | 0.15 | 0.00 | 0.23 | 99 | 1010.5 |
| 20260506114002 | 7 | 248 | 1.6 | 0.0 | 0.15 | 0.00 | 0.23 | 99 | 1010.5 |
| 20260506113001 | 7 | 203 | 3.2 | 0.0 | 0.13 | 0.00 | 0.18 | 99 | 1010.5 |
| 20260506112502 | 7 | 180 | 3.2 | 0.0 | 0.13 | 0.00 | 0.18 | 99 | 1010.5 |
| 20260506112001 | 7 | 203 | 1.6 | 0.0 | 0.15 | 0.00 | 0.15 | 99 | 1010.5 |
| 20260506111501 | 7 | 180 | 3.2 | 0.0 | 0.13 | 0.00 | 0.13 | 99 | 1010.5 |
| 20260506111002 | 7 | 203 | 3.2 | 0.0 | 0.13 | 0.00 | 0.13 | 99 | 1010.5 |
| 20260506110002 | 7 | 225 | 0.0 | 0.0 | 0.10 | 0.00 | 0.10 | 99 | 1010.2 |
| 20260506105502 | 7 | 180 | 3.2 | 0.0 | 0.10 | 0.00 | 0.10 | 99 | 1010.2 |
| 20260506104002 | 7 | 180 | 0.0 | 0.0 | 0.08 | 0.00 | 0.08 | 99 | 1009.8 |
| 20260506103502 | 7 | 158 | 3.2 | 0.0 | 0.05 | 0.00 | 0.05 | 99 | 1009.8 |
| 20260506103002 | 7 | 180 | 0.0 | 0.0 | 0.05 | 0.00 | 0.05 | 99 | 1009.8 |
| 20260506102501 | 7 | 158 | 1.6 | 0.0 | 0.03 | 0.00 | 0.03 | 98 | 1009.5 |
| 20260506102001 | 7 | 135 | 0.0 | 0.0 | 0.00 | 0.00 | 0.00 | 95 | 1009.8 |
| 20260506101502 | 7 | 158 | 4.8 | 0.0 | 0.00 | 0.00 | 0.00 | 95 | 1009.8 |
| 20260506101002 | 7 | 135 | 3.2 | 0.0 | 0.00 | 0.00 | 0.00 | 93 | 1009.8 |
| 20260506100501 | 7 | 158 | 1.6 | 0.0 | 0.00 | 0.00 | 0.00 | 92 | 1009.8 |
| 20260506100001 | 8 | 203 | 4.8 | 0.0 | 0.00 | 0.00 | 0.00 | 91 | 1009.8 |
| 20260506095002 | 8 | 203 | 1.6 | 0.0 | 0.00 | 0.00 | 0.00 | 89 | 1009.8 |
| 20260506092001 | 8 | 203 | 3.2 | 0.0 | 0.00 | 0.00 | 0.00 | 88 | 1009.5 |
| 20260506083502 | 8 | 180 | 4.8 | 0.0 | 0.00 | 0.00 | 0.00 | 86 | 1009.1 |
| 20260506082002 | 8 | 203 | 3.2 | 0.0 | 0.00 | 0.00 | 0.00 | 86 | 1009.1 |
| 20260506081002 | 8 | 203 | 4.8 | 0.0 | 0.00 | 0.00 | 0.00 | 85 | 1008.8 |
| 20260506072502 | 9 | 203 | 4.8 | 0.0 | 0.00 | 0.00 | 0.00 | 87 | 1009.1 |
| 20260506071502 | 9 | 180 | 3.2 | 0.0 | 0.00 | 0.00 | 0.00 | 87 | 1009.1 |
| 20260506062002 | 9 | 225 | 6.4 | 0.0 | 0.00 | 0.00 | 0.00 | 85 | 1008.8 |